{"data":{"norad_id":48770,"epoch":"2026-09-19T22:06:22.012704Z","epoch_age_seconds":68181,"freshness":"FRESH","line1":"1 48770U 21045D   26262.92108811  .00000155  00000+0  37716-3 0  9993","line2":"2 48770  87.8987 240.3132 0001670  84.4062 275.7259 13.15549552256840","mean_motion":13.15549552,"eccentricity":0.000167,"inclination_deg":87.8987,"raan_deg":240.3132,"arg_perigee_deg":84.4062,"mean_anomaly_deg":275.7259,"bstar":0.00037716,"rev_number":25684,"period_min":109.45995898146,"perigee_km":1200.5010746373,"apogee_km":1203.0327625461,"semimajor_km":7579.9039185917,"source":"CELESTRAK","updated_at":"2026-09-20T09:00:44.615300Z"}}